Regional Weather Roundup
Issued by NWS

Home | Current Version | Previous Version | Graphics & Text | Print | Product List | Glossary On
Versions: 1 2 3 4 5 6 7 8 9 10 11 12 13 14 15 16 17 18 19 20 21 22 23 24 25 26 27 28 29 30 31 32 33 34 35 36 37 38 39 40 41 42 43 44 45 46 47 48 49 50
658
ASUS45 KBOU 181810
RWRCO

WEATHER ROUNDUP FOR COLORADO
NATIONAL WEATHER SERVICE PUEBLO CO
1100 AM MST SUN FEB 18 2018

NOTE: "FAIR" INDICATES FEW OR NO CLOUDS BELOW 12000 FEET WITH NO
SIGNIFICANT WEATHER AND/OR OBSTRUCTIONS TO VISIBILITY.

COZ001>005-013-030-031-181900-
...NORTHWEST COLORADO...

CITY           SKY/WX    TMP DP  RH WIND       PRES   REMARKS
CRAIG          SUNNY     45  18  34 SW25G33   29.61F
HAYDEN         MOSUNNY   44  21  40 SW14G30   29.62F
MEEKER         SUNNY     47  18  31 SW20G32   29.65R
RABBIT EARS PA NOT AVBL
STEAMBOAT SPGS PTSUNNY   33  19  56 E3        29.63F
WALDEN         FAIR      39  12  33 SW25      29.63S
$$

COZ006>008-011-181900-
...WEST CENTRAL VALLEYS...

CITY           SKY/WX    TMP DP  RH WIND       PRES   REMARKS
GRAND JUNCTION SUNNY     50  28  42 CALM      29.71F
MONTROSE       MOSUNNY   54  15  21 SW15G26   29.76F
EAGLE          SUNNY     47  18  31 SW22G32   29.70S
RIFLE          SUNNY     43  24  47 NE6       29.68F
DELTA          NOT AVBL
NUCLA          NOT AVBL
$$

COZ017>023-064>068-181900-
...SOUTHWEST COLORADO...

CITY           SKY/WX    TMP DP  RH WIND       PRES   REMARKS
DURANGO        SUNNY     41  22  46 VRB6      29.95F
CORTEZ         SUNNY     50  23  34 S17       29.91F
PAGOSA SPRINGS FAIR      37  25  60 S6        29.97F
TELLURIDE      SUNNY     41   7  24 SW17G25   29.90F
WOLF CREEK PAS MOSUNNY   19  18  93 S31G46    29.95S WCI   0
$$

COZ009-010-012-014-032>034-037-058>063-181900-
...CENTRAL COLORADO...

CITY           SKY/WX    TMP DP  RH WIND       PRES   REMARKS
ASPEN          SUNNY     45  16  31 N12       29.70F
BUENA VISTA    FAIR      49  -1  12 SW18G41   29.68F
COPPER MTN       N/A     32   5  32 SW22G41   29.76F HAZE    WCI  19
BERTHOUD PASS  FAIR      23  12  63 W63G82    29.62R WCI   0
COTTONWOOD PAS SUNNY     43   1  17 W32G55    29.69F
GUNNISON       SUNNY     34  13  41 SE3       29.80F
KREMMLING      SUNNY     46  18  31 W20G37    29.67F
LEADVILLE      SUNNY     37   3  24 W18G41    29.71F
MONARCH PASS   SUNNY     21   9  58 W40G59    29.91S HAZE    WCI   1
SALIDA         FAIR      47   9  21 S13G24    29.81F
SUNLIGHT       SUNNY     28  19  69 S15G35    29.78  WCI  17
WILKERSON PASS SUNNY     34  -6  18 SW32G51   29.71F WCI  20
$$

COZ069>075-181900-
...SAN LUIS VALLEY/SANGRE DE CRISTO MOUNTAINS...

CITY           SKY/WX    TMP DP  RH WIND       PRES   REMARKS
ALAMOSA        SUNNY     47  20  34 S26G35    29.82F
DEL NORTE      FAIR      46  14  28 W20G25    29.82F
LA VETA PASS   MOSUNNY   32  19  59 S35G52    29.85F WCI  17
SAGUACHE       SUNNY     39  12  33 SE9       29.81F
$$

COZ035-036-038>040-181900-
...NORTHERN COLORADO FRONT RANGE...

CITY           SKY/WX    TMP DP  RH WIND       PRES   REMARKS
DENVER INTL AP PTSUNNY   62   9  12 S9        29.49F
DMNS CITY PARK NOT AVBL
AURORA         PTSUNNY   59   6  12 S10       29.51F
FRONT RANGE AP PTSUNNY   61   9  12 S15       29.52F
ERIE MUNI ARPT FAIR      65   2   8 W22G28    29.53F
BOULDER MUN AP FAIR      63  10  13 SW21G36   29.47F
CENTENNIAL     MOSUNNY   60   4  10 W25G32    29.50F
BROOMFIELD     PTSUNNY   63   7  11 NE7       29.50F
LOVELAND       MOSUNNY   63  13  14 W28G40    29.46S
LONGMONT       FAIR      66   7  10 W23G35    29.49S
$$

COZ041-046-047-076>085-087-088-181900-
...PIKES PEAK/PALMER DIVIDE AND SOUTHERN FOOTHILLS...

CITY           SKY/WX    TMP DP  RH WIND       PRES   REMARKS
COLO. SPRINGS  MOSUNNY   62   0   8 SW37G45   29.56F
A. F. ACADEMY  SUNNY     59  -6   7 W18G38    29.57F
SCHRIEVER AFB  NOT AVBL
CHEYENNE MTN   NOT AVBL
ELLICOTT         N/A    N/A N/A N/A SW24G31   29.60F
FALCON         FAIR      56   1  10 SE12G18   29.62F
FORT CARSON    SUNNY     62  -3   7 W17G33    29.56F
LIMON          SUNNY     61   4  10 SW26G37   29.57F
MONUMENT HILL  MOSUNNY   54   1  12 W39G54    29.58R
CANON CITY     SUNNY     63  10  13 W15G31    29.62F
WALSENBURG     FAIR      57  21  24 SW26G37   29.69F
TRINIDAD       MOSUNNY   63   8  11 SW32G41   29.65F
$$

COZ042>045-048>051-090-091-181900-
...NORTHEAST COLORADO...

CITY           SKY/WX    TMP DP  RH WIND       PRES   REMARKS
GREELEY ARPT   MOSUNNY   66  10  11 SW9G16    29.47F
AKRON          SUNNY     64  13  13 SW17G26   29.50F
BURLINGTON     CLOUDY    62  14  15 SW26G35   29.56F
WRAY           FAIR      64  12  13 W17       29.50F
YUMA           NOT AVBL
STERLING       FAIR      63  18  17 S6        29.46F
HOLYOKE        FAIR      63  23  22 W12       29.49F
FORT MORGAN    FAIR      65   6   9 SW10G21   29.50F
$$

COZ086-089-092>099-181900-
...SOUTHEAST COLORADO...

CITY           SKY/WX    TMP DP  RH WIND       PRES   REMARKS
PUEBLO         MOSUNNY   60  17  18 CALM      29.61F
LA JUNTA       CLOUDY    64  15  15 SW37G52   29.59F
LAMAR          LGT RAIN  69  10  10 W25G32    29.59F
SPRINGFIELD      N/A     68  12  11 SW23G40   29.64F
$$





USA.gov is the U.S. government's official web portal to all federal, state and local government web resources and services.